• In Netherlands
  • List of Countries
  • For 7 days
  • Water Temperature
  • Satellite Maps
  • Weather Map
  • Weather Widgets
  • user-avatar
    Login

    Hourly Weather Natitingou

    Today, 24 August, Thursday

    Time Temperature Precipitation Wind Pressure Humidity
    00:00 +24°C° 1 mm 1 mps 718 mmHg 92%
    01:00 +24°C° 1 mm 1 mps 717 mmHg 93%
    02:00 +23°C° 1 mm 1 mps 717 mmHg 94%
    03:00 +23°C° 1 mm 1 mps 717 mmHg 95%
    04:00 +23°C° 0 mm 1 mps 717 mmHg 95%
    05:00 +23°C° 0 mm 1 mps 717 mmHg 95%
    06:00 +23°C° 0 mm 1 mps 717 mmHg 96%
    07:00 +24°C° 0.2 mm 1 mps 718 mmHg 91%
    08:00 +26°C° 0.2 mm 1 mps 718 mmHg 87%
    09:00 +27°C° 0.2 mm 2 mps 719 mmHg 82%
    10:00 +28°C° 0.1 mm 2 mps 718 mmHg 76%
    11:00 +29°C° 0.1 mm 2 mps 718 mmHg 70%
    12:00 +31°C° 0.1 mm 2 mps 718 mmHg 63%
    13:00 +30°C° 0.9 mm 2 mps 718 mmHg 65%
    14:00 +30°C° 0.9 mm 2 mps 717 mmHg 67%
    15:00 +30°C° 0.9 mm 2 mps 716 mmHg 69%
    16:00 +29°C° 0.9 mm 2 mps 716 mmHg 75%
    17:00 +27°C° 0.9 mm 1 mps 716 mmHg 81%
    18:00 +26°C° 0.9 mm 1 mps 716 mmHg 88%
    19:00 +26°C° 1.4 mm 1 mps 717 mmHg 88%
    20:00 +25°C° 1.4 mm 1 mps 717 mmHg 89%
    21:00 +24°C° 1.4 mm 1 mps 718 mmHg 89%
    22:00 +24°C° 0.6 mm 1 mps 718 mmHg 89%
    23:00 +24°C° 0.6 mm 1 mps 718 mmHg 88%

    Tomorrow, 25 August, Friday

    Time Temperature Precipitation Wind Pressure Humidity
    00:00 +22°C° 0.6 mm 0 mps 718 mmHg 87%
    01:00 +24°C° 0.1 mm 1 mps 717 mmHg 89%
    02:00 +23°C° 0.1 mm 1 mps 717 mmHg 90%
    03:00 +23°C° 0.1 mm 1 mps 716 mmHg 92%
    04:00 +23°C° 0 mm 1 mps 717 mmHg 93%
    05:00 +23°C° 0 mm 1 mps 717 mmHg 94%
    06:00 +23°C° 0 mm 1 mps 717 mmHg 95%
    07:00 +25°C° 0 mm 2 mps 718 mmHg 89%
    08:00 +26°C° 0 mm 2 mps 718 mmHg 83%
    09:00 +28°C° 0 mm 3 mps 718 mmHg 77%
    10:00 +29°C° 0 mm 3 mps 718 mmHg 71%
    11:00 +31°C° 0 mm 3 mps 718 mmHg 66%
    12:00 +33°C° 0 mm 3 mps 717 mmHg 60%
    13:00 +33°C° 0.5 mm 3 mps 716 mmHg 61%
    14:00 +32°C° 0.5 mm 2 mps 716 mmHg 62%
    15:00 +32°C° 0.5 mm 2 mps 715 mmHg 63%
    16:00 +30°C° 1.8 mm 2 mps 715 mmHg 71%
    17:00 +28°C° 1.8 mm 2 mps 715 mmHg 78%
    18:00 +27°C° 1.8 mm 1 mps 715 mmHg 86%
    19:00 +26°C° 0.6 mm 2 mps 716 mmHg 87%
    20:00 +26°C° 0.6 mm 2 mps 717 mmHg 88%
    21:00 +25°C° 0.6 mm 2 mps 717 mmHg 89%
    22:00 +25°C° 0.8 mm 2 mps 717 mmHg 90%
    23:00 +25°C° 0.8 mm 2 mps 717 mmHg 91%

    Day after tomorrow, 26 August, Saturday

    Time Temperature Precipitation Wind Pressure Humidity
    00:00 +24°C° 0.8 mm 2 mps 717 mmHg 92%
    01:00 +24°C° 0.7 mm 2 mps 716 mmHg 92%
    02:00 +24°C° 0.7 mm 2 mps 716 mmHg 93%
    03:00 +24°C° 0.7 mm 3 mps 715 mmHg 93%
    04:00 +22°C° 0.2 mm 3 mps 716 mmHg 94%
    05:00 +22°C° 0.2 mm 3 mps 716 mmHg 94%
    06:00 +23°C° 0.2 mm 2 mps 717 mmHg 95%
    07:00 +24°C° 1 mm 2 mps 717 mmHg 92%
    08:00 +25°C° 1 mm 2 mps 718 mmHg 90%
    09:00 +25°C° 1 mm 2 mps 719 mmHg 88%
    10:00 +27°C° 1.1 mm 2 mps 719 mmHg 83%
    11:00 +28°C° 1.1 mm 2 mps 718 mmHg 77%
    12:00 +29°C° 1.1 mm 3 mps 717 mmHg 72%
    13:00 +29°C° 2.2 mm 3 mps 717 mmHg 74%
    14:00 +29°C° 2.2 mm 3 mps 716 mmHg 76%
    15:00 +29°C° 2.2 mm 3 mps 716 mmHg 77%
    16:00 +28°C° 1.2 mm 2 mps 716 mmHg 82%
    17:00 +27°C° 1.2 mm 2 mps 716 mmHg 86%
    18:00 +25°C° 1.2 mm 2 mps 716 mmHg 91%
    19:00 +25°C° 0 mm 2 mps 717 mmHg 91%
    20:00 +25°C° 0 mm 2 mps 717 mmHg 92%
    21:00 +24°C° 0 mm 2 mps 717 mmHg 93%
    22:00 +24°C° 0 mm 2 mps 717 mmHg 93%
    23:00 +24°C° 0 mm 2 mps 717 mmHg 93%

    27 August, Sunday

    Time Temperature Precipitation Wind Pressure Humidity
    00:00 +24°C° 0 mm 2 mps 717 mmHg 94%
    01:00 +23°C° 0 mm 2 mps 717 mmHg 94%
    02:00 +23°C° 0 mm 2 mps 717 mmHg 95%
    03:00 +23°C° 0 mm 1 mps 716 mmHg 96%
    04:00 +23°C° 0 mm 2 mps 717 mmHg 96%
    05:00 +23°C° 0 mm 2 mps 717 mmHg 96%
    06:00 +23°C° 0 mm 2 mps 718 mmHg 96%
    07:00 +24°C° 0 mm 2 mps 718 mmHg 90%
    08:00 +26°C° 0 mm 3 mps 719 mmHg 84%
    09:00 +27°C° 0 mm 3 mps 719 mmHg 77%
    10:00 +28°C° 0.1 mm 3 mps 719 mmHg 73%
    11:00 +29°C° 0.1 mm 3 mps 719 mmHg 69%
    12:00 +31°C° 0.1 mm 3 mps 719 mmHg 65%
    13:00 +30°C° 2 mm 3 mps 718 mmHg 69%
    14:00 +29°C° 2 mm 2 mps 718 mmHg 73%
    15:00 +29°C° 2 mm 2 mps 717 mmHg 77%
    16:00 +28°C° 0.8 mm 2 mps 717 mmHg 81%
    17:00 +27°C° 0.8 mm 1 mps 717 mmHg 85%
    18:00 +26°C° 0.8 mm 1 mps 717 mmHg 88%
    19:00 +25°C° 1.2 mm 1 mps 718 mmHg 90%
    20:00 +25°C° 1.2 mm 2 mps 718 mmHg 92%
    21:00 +24°C° 1.2 mm 2 mps 719 mmHg 93%
    22:00 +24°C° 0 mm 2 mps 719 mmHg 94%
    23:00 +24°C° 0 mm 2 mps 718 mmHg 95%

    28 August, Monday

    Time Temperature Precipitation Wind Pressure Humidity
    00:00 +23°C° 0 mm 2 mps 718 mmHg 95%
    01:00 +23°C° 0 mm 2 mps 718 mmHg 96%
    02:00 +23°C° 0 mm 2 mps 717 mmHg 96%
    03:00 +23°C° 0 mm 2 mps 717 mmHg 96%
    04:00 +21°C° 0 mm 2 mps 718 mmHg 96%
    05:00 +21°C° 0 mm 2 mps 718 mmHg 96%
    06:00 +21°C° 0 mm 2 mps 718 mmHg 96%
    07:00 +23°C° 0.1 mm 2 mps 719 mmHg 94%
    08:00 +24°C° 0.1 mm 2 mps 719 mmHg 91%
    09:00 +25°C° 0.1 mm 3 mps 720 mmHg 89%
    10:00 +26°C° 0.7 mm 3 mps 719 mmHg 86%
    11:00 +27°C° 0.7 mm 3 mps 719 mmHg 83%
    12:00 +28°C° 0.7 mm 3 mps 719 mmHg 79%
    13:00 +27°C° 2 mm 2 mps 718 mmHg 83%
    14:00 +26°C° 2 mm 1 mps 718 mmHg 86%
    15:00 +26°C° 2 mm 1 mps 717 mmHg 89%
    16:00 +25°C° 0.3 mm 1 mps 717 mmHg 90%
    17:00 +25°C° 0.3 mm 1 mps 717 mmHg 91%
    18:00 +24°C° 0.3 mm 1 mps 718 mmHg 91%
    19:00 +24°C° 0 mm 1 mps 718 mmHg 92%
    20:00 +23°C° 0 mm 1 mps 718 mmHg 92%
    21:00 +23°C° 0 mm 1 mps 718 mmHg 93%
    22:00 +23°C° 0 mm 1 mps 718 mmHg 94%
    23:00 +22°C° 0 mm 1 mps 718 mmHg 94%

    29 August, Tuesday

    Time Temperature Precipitation Wind Pressure Humidity
    00:00 +22°C° 0 mm 1 mps 718 mmHg 95%
    01:00 +22°C° 0 mm 1 mps 718 mmHg 95%
    02:00 +22°C° 0 mm 1 mps 718 mmHg 95%
    03:00 +22°C° 0 mm 1 mps 718 mmHg 96%
    04:00 +22°C° 0.1 mm 1 mps 718 mmHg 96%
    05:00 +22°C° 0.1 mm 1 mps 718 mmHg 96%
    06:00 +22°C° 0.1 mm 1 mps 718 mmHg 96%
    07:00 +23°C° 0.1 mm 2 mps 718 mmHg 91%
    08:00 +25°C° 0.1 mm 2 mps 719 mmHg 86%
    09:00 +26°C° 0.1 mm 3 mps 719 mmHg 81%
    10:00 +27°C° 0 mm 3 mps 719 mmHg 77%
    11:00 +28°C° 0 mm 3 mps 718 mmHg 73%
    12:00 +29°C° 0 mm 3 mps 718 mmHg 69%
    13:00 +30°C° 0 mm 2 mps 717 mmHg 67%
    14:00 +30°C° 0 mm 2 mps 716 mmHg 65%
    15:00 +31°C° 0 mm 2 mps 716 mmHg 64%
    16:00 +29°C° 0 mm 2 mps 716 mmHg 69%
    17:00 +28°C° 0 mm 1 mps 716 mmHg 74%
    18:00 +27°C° 0 mm 1 mps 716 mmHg 79%
    19:00 +26°C° 0.1 mm 1 mps 716 mmHg 80%
    20:00 +26°C° 0.1 mm 2 mps 717 mmHg 82%
    21:00 +25°C° 0.1 mm 2 mps 717 mmHg 83%
    22:00 +25°C° 0 mm 2 mps 717 mmHg 84%
    23:00 +24°C° 0 mm 2 mps 717 mmHg 86%
    Show more